PLATFORM,DATE (YYYY/MM/DD HH:MI:SS),LATITUDE (degree_north),LONGITUDE (degree_east),WSPE_MODEL LEVEL0(meter/second),WSTN_MODEL LEVEL0(newton/m2),WSTE_MODEL LEVEL0(newton/m2),WSPN_MODEL LEVEL0(meter/second),DEPH LEVEL1(meter),TEMP LEVEL1(degree_Celsius),DEPH LEVEL2(meter),NSCT LEVEL2(meter/second),EWCT LEVEL2(meter/second),CURRENT_TEST LEVEL2(none),QC,SVP_RCBN_Number,SVP_GNRL_ImmPercent,SVP_GNRL_BattVolt
61935,2012/03/07 10:00:00,43.1030,5.8740,,,,,0.5,-5,50,,,,01449999747999,1,0,0
61935,2012/03/07 10:30:00,43.1030,5.8740,,,,,0.5,-5,50,0,0,,01449999747009,1,0,0
61935,2012/03/07 10:32:41,43.1065,5.8841,,,,,0.5,15.48,50,2.41728,5.09291,,01449999747009,3,55,10.7
61935,2012/03/07 11:02:41,43.1065,5.8841,,,,,0.5,19.56,50,0,0,,01449999747009,3,55,11
61935,2012/03/07 11:30:06,43.1066,5.8841,,,,,0.5,26.36,50,0.00676,0,,01449999747009,4,46,11
61935,2012/03/07 12:00:09,43.1064,5.8839,,,,,0.5,33.64,50,-0.012334,-0.009005,,01449999747009,4,53,11.1
61935,2012/03/07 12:30:17,43.1066,5.8844,,,,,0.5,35.88,50,0.0123,0.022451,,01449999747009,5,53,11.1
61935,2012/03/07 13:00:30,43.1066,5.8840,,,,,0.5,35.88,50,0,-0.017911,,01449999747009,5,17,11.1
61935,2012/03/07 13:30:09,43.1066,5.8841,,,,,0.5,35.88,50,0,0.004563,,01449999747009,3,17,11.1
61935,2012/03/07 14:01:18,43.1065,5.8839,,,,,0.5,35.88,50,-0.005949,-0.008687,,01449999747009,3,6,11
61935,2012/03/07 14:30:16,43.1063,5.8842,,,,,0.5,35.88,50,-0.012796,0.014013,,01449999747009,3,6,11
61935,2012/03/07 15:00:04,43.1067,5.8836,,,,,0.5,35.48,50,0.024876,-0.027242,,01449999747009,3,7,11.1
61935,2012/03/07 15:32:04,43.1063,5.8837,,,,,0.5,32.68,50,-0.023166,0.004228,,01449999747009,1,7,11.1
61935,2012/03/07 16:00:18,43.1065,5.8841,,,,,0.5,30.28,50,0.013128,0.019169,,01449999747009,1,7,11.1
61935,2012/03/07 16:30:07,43.1063,5.8842,,,,,0.5,28.2,50,-0.012431,0.004538,,01449999747009,4,7,11.1
61935,2012/03/07 17:00:35,43.1066,5.8837,,,,,0.5,25.96,50,0.018249,-0.022205,,01449999747009,4,17,11.1
61935,2012/03/07 17:30:04,43.1065,5.8841,,,,,0.5,21.64,50,-0.006286,0.018357,,01449999747009,1,17,11.1
61935,2012/03/07 18:00:06,43.1069,5.8843,,,,,0.5,18.44,50,0.024683,0.00901,,01449999747009,1,17,11.1
61935,2012/03/07 18:30:53,43.1062,5.8838,,,,,0.5,16.52,50,-0.042142,-0.021977,,01449999747009,1,17,11.1
61935,2012/03/07 19:00:17,43.1064,5.8840,,,,,0.5,15.32,50,0.012607,0.009204,,01449999747009,1,12,11.1
61935,2012/03/07 19:30:46,43.1064,5.8840,,,,,0.5,14.52,50,0,0,,01449999747009,1,12,11.1
61935,2012/03/07 20:30:06,43.1067,5.8839,,,,,0.5,13.24,50,0.00937,-0.00228,,01449999747009,1,7,11.1
61935,2012/03/07 21:01:04,43.1065,5.8841,,,,,0.5,12.84,50,-0.011969,0.008739,,01449999747009,1,6,11.1
61935,2012/03/07 21:30:04,43.1064,5.8840,,,,,0.5,12.68,50,-0.006391,-0.004666,,01449999747009,1,6,11.1
61935,2012/03/07 22:00:05,43.1063,5.8843,,,,,0.5,12.52,50,-0.006174,0.013523,,01449999747009,1,6,11.1
61935,2012/03/07 22:30:16,43.1063,5.8841,,,,,0.5,12.28,50,0,-0.008965,,01449999747009,1,6,11.1
61935,2012/03/07 23:00:22,43.1063,5.8841,,,,,0.5,12.04,50,0,0,,01449999747009,1,6,11.1
61935,2012/03/07 23:30:34,43.1019,5.8859,,,,,0.5,11.72,50,-0.27001,0.080647,,01449999747009,1,6,11.1
61935,2012/03/08 01:00:06,43.1066,5.8841,,,,,0.5,10.28,50,0.097285,-0.027203,,01449999747009,1,6,11.1
61935,2012/03/08 01:30:05,43.1065,5.8841,,,,,0.5,9.96,50,-0.006181,0,,01449999747009,1,6,11.1
61935,2012/03/08 02:00:35,43.1064,5.8840,,,,,0.5,9.96,50,-0.006076,-0.004436,,01449999747009,1,6,11.1
61935,2012/03/08 02:30:06,43.1067,5.8840,,,,,0.5,10.12,50,0.018836,0,,01449999747009,1,6,11.1
61935,2012/03/08 03:30:08,43.1060,5.8859,,,,,0.5,10.28,50,-0.021609,0.042822,,01449999747009,1,6,11.1
61935,2012/03/08 04:00:53,43.1065,5.8840,,,,,0.5,10.2,50,0.030134,-0.083602,,01449999747009,1,7,11.1
61935,2012/03/08 04:30:20,43.1061,5.8834,,,,,0.5,10.04,50,-0.025171,-0.027566,,01449999747009,1,7,11.1
61935,2012/03/08 05:00:52,43.1066,5.8842,,,,,0.5,9.96,50,0.030348,0.035451,,01449999747009,1,7,11.1
61935,2012/03/08 05:30:07,43.1067,5.8842,,,,,0.5,9.56,50,0.006336,0,,01449999747009,1,7,11.1
61935,2012/03/08 06:00:29,43.1066,5.8842,,,,,0.5,9.08,50,-0.006103,0,,01449999747009,1,6,11.1
61935,2012/03/08 06:30:34,43.1064,5.8841,,,,,0.5,8.68,50,-0.012321,-0.004498,,01449999747009,1,6,11.1
61935,2012/03/14 06:00:00,43.5797,7.5097,,,,,0.5,-5,50,0.101881,0.254482,,01449999747009,4,0,0
61935,2012/03/14 06:30:00,43.5814,7.5154,,,,,0.5,-5,50,0.103239,0.256439,,01449999747009,1,0,0
61935,2012/03/14 06:32:13,43.5711,7.5726,,,,,0.5,12.84,50,,,,01449999717999,4,0,10.9
61935,2012/03/14 07:02:13,43.5711,7.5726,,,,,0.5,12.84,50,0,0,,01449999717009,5,68,10.9
61935,2012/03/14 07:30:05,43.5827,7.5052,,,,,0.5,17.24,50,0.771448,-3.24726,,01119999747009,5,68,10.9
61935,2012/03/14 08:00:03,43.5799,7.5021,,,,,0.5,13.48,50,-0.173162,-0.138878,,01119999717009,5,9,11.1
61935,2012/03/14 08:30:03,43.5772,7.4987,,,,,0.5,13.56,50,-0.166792,-0.152156,,01119999717009,5,9,11.1
61935,2012/03/14 09:00:04,43.5747,7.4953,,,,,0.5,13.72,50,-0.154352,-0.152078,,01119999717009,3,6,11.1
61935,2012/03/14 09:30:03,43.5727,7.4925,,,,,0.5,13.72,50,-0.123619,-0.125384,,01119999717009,4,6,11.1
61935,2012/03/14 10:00:04,43.5706,7.4898,,,,,0.5,13.8,50,-0.129655,-0.120776,,01119999717009,4,6,11.1
61935,2012/03/14 10:30:06,43.5692,7.4865,,,,,0.5,13.88,50,-0.086389,-0.147538,,01119999717009,3,6,11.1
61935,2012/03/14 11:00:04,43.5670,7.4838,,,,,0.5,13.96,50,-0.136056,-0.120985,,01119999717009,3,6,11.1
61935,2012/03/14 11:30:04,43.5657,7.4810,,,,,0.5,14.04,50,-0.080307,-0.12533,,01119999717009,3,6,11.1
61935,2012/03/14 12:00:35,43.5650,7.4777,,,,,0.5,13.96,50,-0.04251,-0.145212,,01119999717009,1,6,11.1
61935,2012/03/14 12:30:04,43.5641,7.4750,,,,,0.5,14.2,50,-0.056572,-0.122975,,01119999717009,1,6,11.1
61935,2012/03/14 13:00:04,43.5637,7.4722,,,,,0.5,14.2,50,-0.02471,-0.125335,,01119999717009,3,6,11
61935,2012/03/14 13:30:03,43.5635,7.4695,,,,,0.5,14.2,50,-0.012362,-0.120927,,01119999717009,3,6,11
61935,2012/03/14 14:00:06,43.5642,7.4666,,,,,0.5,14.2,50,0.043171,-0.129595,,01119999717009,1,6,11.1
61935,2012/03/14 14:30:34,43.5647,7.4644,,,,,0.5,14.2,50,0.030414,-0.096968,,01119999717009,1,6,11.1
61935,2012/03/14 15:00:05,43.5655,7.4628,,,,,0.5,14.2,50,0.050229,-0.072791,,01119999717009,1,6,11.1
61935,2012/03/14 15:30:09,43.5664,7.4619,,,,,0.5,14.12,50,0.055474,-0.040196,,01119999717009,4,6,11.1
61935,2012/03/14 16:00:04,43.5675,7.4613,,,,,0.5,14.04,50,0.068142,-0.026931,,01119999717009,4,4,11.1
61935,2012/03/14 16:30:04,43.5683,7.4613,,,,,0.5,13.96,50,0.04942,0,,01119999717009,1,4,11.1
61935,2012/03/14 17:00:05,43.5687,7.4611,,,,,0.5,13.96,50,0.024696,-0.008947,,01119999717009,1,14,11.1
61935,2012/03/14 18:00:05,43.5644,7.4616,,,,,0.5,13.88,50,-0.132816,0.01119,,01119999717009,1,14,11.1
61935,2012/03/14 18:30:04,43.5618,7.4615,,,,,0.5,13.88,50,-0.160704,-0.004479,,01119999717009,1,14,11.1
61935,2012/03/14 19:00:04,43.5589,7.4581,,,,,0.5,13.8,50,-0.179147,-0.152202,,01119999717009,1,20,11.1
61935,2012/03/14 19:30:27,43.5555,7.4608,,,,,0.5,13.72,50,-0.207385,0.119347,,01119999717009,1,20,11.1
61935,2012/03/14 20:00:26,43.5522,7.4599,,,,,0.5,13.72,50,-0.203971,-0.040315,,01119999717009,1,14,11
61935,2012/03/14 20:30:52,43.5488,7.4581,,,,,0.5,13.72,50,-0.207044,-0.079443,,01119999717009,1,14,11
61935,2012/03/14 21:00:05,43.5456,7.4557,,,,,0.5,13.72,50,-0.20298,-0.110341,,01119999717009,1,17,11.1
61935,2012/03/14 21:30:05,43.5420,7.4523,,,,,0.5,13.72,50,-0.22239,-0.152243,,01119999717009,1,17,11.1
61935,2012/03/14 22:00:05,43.5389,7.4483,,,,,0.5,13.72,50,-0.191502,-0.17912,,01119999717009,1,15,11.1
61935,2012/03/14 22:30:04,43.5355,7.4438,,,,,0.5,13.8,50,-0.210152,-0.201633,,01119999717009,1,15,11.1
61935,2012/03/14 23:00:07,43.5318,7.4393,,,,,0.5,13.8,50,-0.228187,-0.201197,,01119999717009,1,19,11
61935,2012/03/15 00:00:04,43.5261,7.4287,,,,,0.5,13.8,50,-0.176205,-0.237577,,01119999717009,1,15,11
61935,2012/03/15 00:30:04,43.5228,7.4227,,,,,0.5,13.8,50,-0.203857,-0.268751,,01119999717009,1,15,11
61935,2012/03/15 01:00:08,43.5191,7.4170,,,,,0.5,13.8,50,-0.228061,-0.254762,,01119999717009,1,17,11
61935,2012/03/15 01:30:04,43.5167,7.4096,,,,,0.5,13.72,50,-0.14859,-0.332234,,01119999717009,1,17,11
61935,2012/03/15 02:01:23,43.5135,7.4027,,,,,0.5,13.72,50,-0.189369,-0.296115,,01119999717009,1,17,11
61935,2012/03/15 02:30:14,43.5108,7.3958,,,,,0.5,13.72,50,-0.173441,-0.321449,,01119999717009,1,17,11
61935,2012/03/15 03:00:22,43.5082,7.3881,,,,,0.5,13.72,50,-0.159904,-0.343456,,01119999717009,1,19,11
61935,2012/03/15 03:30:35,43.5060,7.3808,,,,,0.5,13.72,50,-0.13493,-0.324729,,01119999717009,1,19,11
61935,2012/03/15 04:01:52,43.5034,7.3722,,,,,0.5,13.72,50,-0.154026,-0.369528,,01119999717009,1,17,11
61935,2012/03/15 04:30:05,43.5016,7.3647,,,,,0.5,13.64,50,-0.137047,-0.363729,,01119999717009,1,17,11
61935,2012/03/15 05:00:19,43.4998,7.3568,,,,,0.5,13.64,50,-0.110337,-0.351263,,01119999717009,1,17,11
61935,2012/03/15 05:30:06,43.4982,7.3489,,,,,0.5,13.64,50,-0.099559,-0.35658,,01119999717009,1,17,11
61935,2012/03/15 06:01:06,43.4965,7.3410,,,,,0.5,13.64,50,-0.10163,-0.342595,,01119999717009,1,17,11
61935,2012/03/15 06:30:03,43.4952,7.3333,,,,,0.5,13.64,50,-0.08322,-0.357576,,01119999717009,1,17,11
61935,2012/03/15 07:00:05,43.4944,7.3257,,,,,0.5,13.56,50,-0.049365,-0.340207,,01119999717009,3,15,11
61935,2012/03/15 07:30:14,43.4934,7.3181,,,,,0.5,13.56,50,-0.061468,-0.338896,,01119999717009,1,15,11
61935,2012/03/15 08:01:16,43.4927,7.3107,,,,,0.5,13.56,50,-0.041803,-0.320589,,01119999717009,1,15,11
61935,2012/03/15 08:30:03,43.4922,7.2000,,,,,0.5,13.56,50,-0.045318,-1.87844,,01449999717009,1,15,11
61935,2012/03/15 09:00:03,43.4918,10.6246,,,,,0.5,13.56,50,,,,01449999717999,1,17,11
61935,2012/03/15 09:30:04,43.4914,7.2902,,,,,0.5,13.48,50,,,,01119999717999,1,17,11
61935,2012/03/15 10:00:03,43.4911,7.2838,,,,,0.5,13.48,50,-0.018543,-0.286985,,01119999717009,1,15,11
61935,2012/03/15 10:30:05,43.4910,7.2778,,,,,0.5,13.48,50,-0.006171,-0.268601,,01119999717009,1,15,11
61935,2012/03/15 11:00:16,43.4911,7.2722,,,,,0.5,13.48,50,0.00614,-0.249449,,01119999717009,1,14,11
61935,2012/03/15 11:30:05,43.4909,7.2669,,,,,0.5,13.48,50,-0.012431,-0.238989,,01119999717009,1,14,11
61935,2012/03/15 12:00:19,43.4909,7.2621,,,,,0.5,13.48,50,0,-0.21346,,01119999717009,1,17,11
61935,2012/03/15 12:30:58,43.4908,7.2575,,,,,0.5,13.56,50,-0.006046,-0.201785,,01119999717009,1,17,11
61935,2012/03/15 13:00:03,43.4906,7.2533,,,,,0.5,13.56,50,-0.012744,-0.194164,,01119999717009,1,14,11
61935,2012/03/15 13:30:16,43.4905,7.2490,,,,,0.5,13.56,50,-0.006133,-0.191331,,01119999717009,1,14,11
61935,2012/03/15 14:30:05,43.4905,7.2408,,,,,0.5,13.56,50,0,-0.184313,,01119999717009,1,15,10.9
61935,2012/03/15 15:00:03,43.4903,7.2371,,,,,0.5,13.56,50,-0.012369,-0.166008,,01119999717009,1,14,11
61935,2012/03/15 15:31:34,43.4899,7.2338,,,,,0.5,13.56,50,-0.023521,-0.14078,,01119999717009,1,14,11
61935,2012/03/15 16:00:05,43.4900,7.2303,,,,,0.5,13.56,50,0.006499,-0.16502,,01119999717009,1,15,11
61935,2012/03/15 16:30:15,43.4896,7.2273,,,,,0.5,13.56,50,-0.024573,-0.13371,,01119999717009,1,15,11
61935,2012/03/15 17:00:03,43.4897,7.2241,,,,,0.5,13.56,50,0.006219,-0.144379,,01119999717009,1,14,11
61935,2012/03/15 17:30:34,43.4892,7.2211,,,,,0.5,13.56,50,-0.030365,-0.132177,,01119999717009,1,14,11
61935,2012/03/15 18:00:15,43.4886,7.2178,,,,,0.5,13.56,50,-0.03746,-0.149478,,01119999717009,1,17,11
61935,2012/03/15 18:32:04,43.4878,7.2143,,,,,0.5,13.56,50,-0.046598,-0.147909,,01119999717009,1,17,11
61935,2012/03/15 19:00:04,43.4871,7.2112,,,,,0.5,13.56,50,-0.046331,-0.148864,,01119999717009,1,20,11
61935,2012/03/15 20:01:03,43.4856,7.2046,,,,,0.5,13.56,50,-0.045584,-0.145521,,01119999717009,1,23,11
61935,2012/03/15 20:30:13,43.4849,7.2014,,,,,0.5,13.56,50,-0.044478,-0.147525,,01119999717009,1,23,11
61935,2012/03/15 21:01:24,43.4839,7.1980,,,,,0.5,13.56,50,-0.059431,-0.14661,,01119999717009,1,20,11
61935,2012/03/15 21:30:04,43.4833,7.1954,,,,,0.5,13.56,50,-0.038789,-0.121958,,01119999717009,1,20,11
61935,2012/03/15 22:00:15,43.4823,7.1925,,,,,0.5,13.56,50,-0.0614,-0.129196,,01119999717009,1,20,11
61935,2012/03/15 22:30:21,43.4814,7.1891,,,,,0.5,13.56,50,-0.055413,-0.151893,,01119999717009,1,20,11
61935,2012/03/15 23:03:07,43.4802,7.1852,,,,,0.5,13.56,50,-0.067871,-0.160054,,01119999717009,1,22,11
61935,2012/03/15 23:30:03,43.4929,7.1815,,,,,0.5,13.56,50,0.873871,-0.184716,,01339999717009,1,22,11
61935,2012/03/16 00:00:20,43.4792,7.1778,,,,,0.5,13.56,50,-0.838399,-0.164284,,01119999717009,1,17,11
61935,2012/03/16 00:30:15,43.4785,7.1740,,,,,0.5,13.56,50,-0.443302,-0.167519,,01119999717009,1,17,11
61935,2012/03/16 01:00:05,43.4780,7.1700,,,,,0.5,13.56,50,-0.03106,-0.180306,,01119999717009,1,17,11
61935,2012/03/16 01:30:03,43.4781,7.1658,,,,,0.5,13.48,50,0.006184,-0.18848,,01119999717009,1,17,11
61935,2012/03/16 02:00:21,43.4772,7.1623,,,,,0.5,13.48,50,-0.055047,-0.15534,,01119999717009,1,15,11
61935,2012/03/16 02:30:13,43.4771,7.1583,,,,,0.5,13.48,50,-0.006205,-0.180108,,01119999717009,1,15,11
61935,2012/03/16 03:01:23,43.4769,7.1542,,,,,0.5,13.48,50,-0.011893,-0.176911,,01119999717009,1,17,11
61935,2012/03/16 03:30:04,43.4773,7.1505,,,,,0.5,13.48,50,0.025844,-0.173473,,01119999717009,1,17,11
61935,2012/03/16 04:00:05,43.4773,7.1471,,,,,0.5,13.48,50,0,-0.152327,,01119999717009,1,17,11
61935,2012/03/16 04:30:06,43.4777,7.1438,,,,,0.5,13.48,50,0.024696,-0.147846,,01119999717009,1,17,11
61935,2012/03/16 05:00:15,43.4777,7.1406,,,,,0.5,13.48,50,0,-0.142731,,01119999717009,1,15,11
61935,2012/03/16 05:30:34,43.4778,7.1374,,,,,0.5,13.48,50,0.006113,-0.141946,,01119999717009,1,15,11
61935,2012/03/16 06:00:08,43.4781,7.1345,,,,,0.5,13.48,50,0.018804,-0.131902,,01119999717009,1,17,11
61935,2012/03/16 06:30:15,43.4781,7.1316,,,,,0.5,13.48,50,0,-0.129492,,01119999717009,1,17,11
61935,2012/03/16 07:02:04,43.4783,7.1287,,,,,0.5,13.48,50,0.01165,-0.122573,,01119999717009,1,19,11
61935,2012/03/16 07:30:14,43.4785,7.1264,,,,,0.5,13.48,50,0.013159,-0.10981,,01119999717009,1,19,11
61935,2012/03/16 08:00:35,43.4785,7.1236,,,,,0.5,13.48,50,0,-0.124065,,01119999717009,1,15,11
61935,2012/03/16 08:30:13,43.4782,7.1215,,,,,0.5,13.48,50,-0.018762,-0.095299,,01119999717009,1,15,11
61935,2012/03/16 09:00:26,43.4783,7.1195,,,,,0.5,13.48,50,0.006133,-0.089009,,01119999717009,1,14,11
61935,2012/03/16 09:30:04,43.4780,7.1169,,,,,0.5,13.48,50,-0.018762,-0.11799,,01119999717009,1,14,11
61935,2012/03/16 10:00:03,43.4768,7.1146,,,,,0.5,13.64,50,-0.046629,-0.110531,,01119999717009,1,15,11
61935,2012/03/16 10:30:37,43.4761,7.1123,,,,,0.5,13.72,50,-0.042441,-0.101192,,01119999717009,1,15,11
61935,2012/03/16 11:00:07,43.4762,7.1100,,,,,0.5,13.72,50,0.006282,-0.104851,,01119999717009,1,14,11
61935,2012/03/16 11:30:26,43.4766,7.1080,,,,,0.5,13.64,50,0.024452,-0.088718,,01119999717009,1,14,11
61935,2012/03/16 12:00:10,43.4769,7.1072,,,,,0.5,13.72,50,0.018699,-0.036183,,01119999717009,1,15,11
61935,2012/03/16 12:30:21,43.4770,7.1059,,,,,0.5,13.72,50,0.00614,-0.057921,,01119999717009,1,15,11
61935,2012/03/16 13:00:31,43.4772,7.1048,,,,,0.5,13.72,50,0.012287,-0.049037,,01119999717009,3,14,11
61935,2012/03/16 13:30:16,43.4776,7.1039,,,,,0.5,13.8,50,0.024918,-0.040683,,01119999717009,3,14,11
61935,2012/03/16 14:01:04,43.4776,7.1033,,,,,0.5,13.88,50,0,-0.026197,,01119999717009,3,14,11
61935,2012/03/16 14:30:34,43.4777,7.1028,,,,,0.5,13.88,50,0.006282,-0.022793,,01119999717009,5,14,11
61935,2012/03/16 15:00:04,43.4778,7.1022,,,,,0.5,13.96,50,0.006282,-0.027352,,01119999717009,5,14,11
61935,2012/03/16 15:30:14,43.4778,7.1016,,,,,0.5,14.04,50,0,-0.026747,,01119999717009,1,14,11
61935,2012/03/16 16:00:03,43.4779,7.1009,,,,,0.5,13.96,50,0.006215,-0.031571,,01119999717009,1,14,11
61935,2012/03/16 16:30:14,43.4777,7.1004,,,,,0.5,13.96,50,-0.01228,-0.022277,,01119999717009,3,14,11
61935,2012/03/16 17:00:19,43.4773,7.0997,,,,,0.5,13.96,50,-0.024642,-0.031292,,01119999717009,3,15,11
61935,2012/03/16 17:30:35,43.4773,7.0993,,,,,0.5,13.96,50,0,-0.017773,,01119999717009,1,15,11
61935,2012/03/16 18:00:14,43.4764,7.0985,,,,,0.5,13.96,50,-0.056254,-0.036285,,01119999717009,3,12,11
61935,2012/03/16 18:30:20,43.4756,7.0980,,,,,0.5,13.96,50,-0.049256,-0.022339,,01119999717009,3,12,11
61935,2012/03/16 19:00:03,43.4745,7.0974,,,,,0.5,13.96,50,-0.0686,-0.027154,,01119999717009,3,12,11
61935,2012/03/16 19:30:15,43.4740,7.0962,,,,,0.5,13.88,50,-0.030683,-0.053439,,01119999717009,1,12,11
61935,2012/03/16 20:00:04,43.4732,7.0952,,,,,0.5,13.88,50,-0.049724,-0.045105,,01119999717009,1,11,11
61935,2012/03/16 20:31:58,43.4726,7.0937,,,,,0.5,13.8,50,-0.034857,-0.06324,,01119999717009,1,11,11
61935,2012/03/16 21:00:03,43.4720,7.0924,,,,,0.5,13.72,50,-0.039595,-0.062257,,01119999717009,1,11,11
61935,2012/03/16 21:30:05,43.4713,7.0908,,,,,0.5,13.72,50,-0.043194,-0.07165,,01119999717009,1,11,11
61935,2012/03/16 22:00:15,43.4704,7.0892,,,,,0.5,13.64,50,-0.05529,-0.071334,,01119999717009,1,12,11
61935,2012/03/16 23:00:05,43.4689,7.0857,,,,,0.5,13.48,50,-0.047862,-0.075073,,01119999717009,1,9,10.9
61935,2012/03/16 23:30:03,43.4677,7.0840,,,,,0.5,13.48,50,-0.074212,-0.076302,,01119999717009,1,9,10.9
61935,2012/03/17 00:01:04,43.4666,7.0822,,,,,0.5,13.48,50,-0.065725,-0.078057,,01119999717009,1,11,11
61935,2012/03/17 00:30:18,43.4654,7.0802,,,,,0.5,13.56,50,-0.076074,-0.092022,,01119999717009,1,11,11
61935,2012/03/17 01:00:04,43.4643,7.0777,,,,,0.5,13.64,50,-0.072245,-0.10259,,01119999717009,1,14,11
61935,2012/03/17 01:30:06,43.4631,7.0749,,,,,0.5,13.56,50,-0.074048,-0.125404,,01119999717009,1,14,11
61935,2012/03/17 02:00:14,43.4617,7.0720,,,,,0.5,13.64,50,-0.086102,-0.129454,,01119999717009,1,15,11
61935,2012/03/17 02:31:57,43.4601,7.0687,,,,,0.5,13.64,50,-0.09349,-0.13996,,01119999717009,1,15,11
61935,2012/03/17 03:00:13,43.4585,7.0655,,,,,0.5,13.56,50,-0.104901,-0.152287,,01119999717009,1,12,11
61935,2012/03/17 03:30:03,43.4568,7.0622,,,,,0.5,13.56,50,-0.105604,-0.148803,,01119999717009,3,12,11
61935,2012/03/17 04:00:03,43.4548,7.0585,,,,,0.5,13.56,50,-0.12355,-0.165918,,01119999717009,3,17,11
61935,2012/03/17 04:30:06,43.4528,7.0541,,,,,0.5,13.56,50,-0.123344,-0.196986,,01119999717009,1,17,11
61935,2012/03/17 05:00:12,43.4509,7.0491,,,,,0.5,13.48,50,-0.116982,-0.223484,,01119999717009,1,20,11
61935,2012/03/17 06:00:58,43.4468,7.0389,,,,,0.5,13.4,50,-0.125041,-0.225839,,01119999717009,1,19,11
61935,2012/03/17 06:30:04,43.4449,7.0323,,,,,0.5,13.4,50,-0.121002,-0.305166,,01119999717009,1,19,11
61935,2012/03/17 07:00:16,43.4426,7.0265,,,,,0.5,13.4,50,-0.141141,-0.258417,,01119999717009,1,20,11
61935,2012/03/17 07:31:58,43.4402,7.0195,,,,,0.5,13.4,50,-0.140309,-0.297136,,01119999717009,1,20,11
61935,2012/03/17 08:00:06,43.4379,7.0138,,,,,0.5,13.48,50,-0.15151,-0.272639,,01119999717009,1,19,11
61935,2012/03/17 08:30:03,43.4358,7.0070,,,,,0.5,13.48,50,-0.129944,-0.305536,,01119999717009,1,19,11
61935,2012/03/17 09:00:00,43.4980,7.0580,,,,,0.5,13.56,50,3.84882,2.29038,,01449999717009,1,20,10.8
61935,2012/03/17 09:31:35,43.4307,6.9948,,,,,0.5,13.56,50,-3.94903,-2.69161,,01119999717009,1,20,10.8
61935,2012/03/17 10:00:06,43.4284,6.9887,,,,,0.5,13.56,50,-0.149473,-0.287894,,01119999717009,1,25,11
61935,2012/03/17 10:01:35,43.4307,6.9948,,,,,0.5,13.56,50,2.87358,5.53469,,01119999717009,1,20,10.8
61935,2012/03/17 10:30:06,43.4284,6.9887,,,,,0.5,13.56,50,-0.149473,-0.287894,,01119999717009,1,25,11
61935,2012/03/17 10:31:01,43.4258,6.9829,,,,,0.5,13.56,50,-0.155853,-0.252496,,01119999717009,1,25,11
61935,2012/03/17 11:00:00,43.4200,6.9834,,,,,0.5,13.56,50,-0.368822,0.02125,,01339999717009,1,28,10.8
61935,2012/03/17 11:32:06,43.4204,6.9714,,,,,0.5,13.64,50,-0.163834,-0.25341,,01119999717009,1,28,10.8
61935,2012/03/17 12:00:04,43.4179,6.9657,,,,,0.5,13.64,50,-0.165666,-0.274354,,01119999717009,1,28,11
61935,2012/03/17 12:30:09,43.4147,6.9587,,,,,0.5,13.64,50,-0.197132,-0.313234,,01119999717009,1,28,11
61935,2012/03/17 13:00:20,43.4115,6.9529,,,,,0.5,13.64,50,-0.196479,-0.258691,,01119999717009,1,26,11
61935,2012/03/17 13:30:19,43.4086,6.9469,,,,,0.5,13.64,50,-0.179247,-0.26941,,01119999717009,3,26,11
61935,2012/03/17 14:00:04,43.4054,6.9408,,,,,0.5,13.64,50,-0.199341,-0.276062,,01119999717009,1,28,11
61935,2012/03/17 14:30:04,43.4022,6.9350,,,,,0.5,13.64,50,-0.19768,-0.260312,,01119999717009,1,28,11
61935,2012/03/17 15:00:44,43.3988,6.9290,,,,,0.5,13.64,50,-0.205469,-0.263448,,01119999717009,1,25,11
61935,2012/03/17 15:32:02,43.3956,6.9228,,,,,0.5,13.64,50,-0.18947,-0.266736,,01119999717009,1,25,11
61935,2012/03/17 16:00:00,43.3757,6.9409,,,,,0.5,13.64,50,-1.32021,0.871426,,01449999717009,1,23,10.8
61935,2012/03/17 16:33:03,43.3890,6.9117,,,,,0.5,13.64,50,0.746907,-1.18961,,01119999717009,1,23,10.8
61935,2012/03/17 17:03:15,43.3859,6.9067,,,,,0.5,13.64,50,-0.190234,-0.222981,,01119999717009,1,25,11
61935,2012/03/17 17:30:05,43.3834,6.9025,,,,,0.5,13.56,50,-0.172663,-0.210814,,01119999717009,1,25,11
61935,2012/03/17 19:00:26,43.3732,6.8898,,,,,0.5,13.56,50,-0.209221,-0.189341,,01119999717009,1,25,11
61935,2012/03/17 19:31:44,43.3691,6.8860,,,,,0.5,13.56,50,-0.242758,-0.163554,,01119999717009,1,25,11
61935,2012/03/17 20:02:56,43.3649,6.8821,,,,,0.5,13.56,50,-0.249476,-0.168407,,01119999717009,1,26,11
61935,2012/03/17 20:31:47,43.3608,6.8789,,,,,0.5,13.56,50,-0.263373,-0.149446,,01119999717009,1,26,11
61935,2012/03/17 21:00:32,43.3564,6.8754,,,,,0.5,13.56,50,-0.283628,-0.164037,,01119999717009,1,22,11
61935,2012/03/17 21:30:04,43.3520,6.8722,,,,,0.5,13.48,50,-0.276105,-0.146009,,01119999717009,1,22,11
61935,2012/03/17 22:00:15,43.3467,6.8690,,,,,0.5,13.56,50,-0.325419,-0.142876,,01119999717009,1,22,11
61935,2012/03/17 22:31:03,43.3409,6.8664,,,,,0.5,13.56,50,-0.348988,-0.113773,,01119999717009,1,22,11
61935,2012/03/17 23:01:28,43.3352,6.8633,,,,,0.5,13.48,50,-0.347294,-0.137375,,01119999717009,1,23,11
61935,2012/03/17 23:30:03,43.3294,6.8606,,,,,0.5,13.56,50,-0.361226,-0.132512,,01119999717009,1,23,11
61935,2012/03/18 00:00:00,43.3260,6.8590,-4.3,-0.01,-0.02,-1.6,,13.57,50,-0.386,-0.131,313,01111111911111,,,
61935,2012/03/18 00:00:15,43.3228,6.8574,,,,,0.5,13.56,50,-0.405015,-0.142852,,01119999717009,1,22,11
61935,2012/03/18 00:30:59,43.3163,6.8537,,,,,0.5,13.48,50,-0.391956,-0.162324,,01119999717009,1,22,11
61935,2012/03/18 01:00:15,43.3096,6.8504,,,,,0.5,13.48,50,-0.424263,-0.152047,,01119999717009,1,22,11
61935,2012/03/18 01:31:24,43.3025,6.8475,,,,,0.5,13.48,50,-0.42241,-0.125553,,01119999717009,3,22,11
61935,2012/03/18 02:01:34,43.2954,6.8448,,,,,0.5,13.48,50,-0.436179,-0.120718,,01119999717009,3,22,10.9
61935,2012/03/18 02:30:25,43.2882,6.8427,,,,,0.5,13.48,50,-0.462509,-0.098189,,01119999717009,3,22,10.9
61935,2012/03/18 03:00:00,43.2840,6.8420,-3,0,-0.01,-1.1,,13.54,50,-0.499,-0.124,313,01111111911111,,,
61935,2012/03/18 03:00:05,43.2804,6.8409,,,,,0.5,13.48,50,-0.487259,-0.081855,,01119999717009,3,22,11
61935,2012/03/18 03:30:15,43.2721,6.8391,,,,,0.5,13.48,50,-0.509899,-0.080509,,01119999717009,3,22,11
61935,2012/03/18 04:00:04,43.2632,6.8371,,,,,0.5,13.48,50,-0.553178,-0.090517,,01119999717009,3,20,11
61935,2012/03/18 04:30:20,43.2538,6.8345,,,,,0.5,13.48,50,-0.575568,-0.11594,,01119999717009,3,20,11
61935,2012/03/18 05:00:15,43.2446,6.8306,,,,,0.5,13.48,50,-0.569913,-0.175972,,01119999717009,3,20,11
61935,2012/03/18 05:30:07,43.2348,6.8288,,,,,0.5,13.48,50,-0.608097,-0.081366,,01119999717009,3,20,11
61935,2012/03/18 06:00:00,43.2290,6.8260,-0.8,0.01,0,3.7,,13.51,50,-0.566,-0.113,313,01111111911111,,,
61935,2012/03/18 06:01:24,43.2249,6.8255,,,,,0.5,13.48,50,-0.586484,-0.14244,,01119999717009,1,20,11
61935,2012/03/18 06:30:03,43.2162,6.8224,,,,,0.5,13.48,50,-0.562767,-0.146128,,01119999717009,1,20,11
61935,2012/03/18 07:01:33,43.2065,6.8206,,,,,0.5,13.48,50,-0.570683,-0.077183,,01119999717009,1,22,11
61935,2012/03/18 07:30:05,43.1977,6.8184,,,,,0.5,13.48,50,-0.571563,-0.104159,,01119999717009,1,22,11
61935,2012/03/18 08:00:06,43.1885,6.8156,,,,,0.5,13.48,50,-0.568014,-0.126034,,01119999717009,1,20,11